Location: College Park
(38.9810°N, 76.9370°W)
Time: 04:27:07
(UTC-05:00)

OTV 5 (USA 277) - Pass Details

Date: 15 November 2017
Orbit: 404 x 417 km, 43.0° (Epoch: 07 September)

Event Time Altitude Azimuth Distance (km) Brightness Sun altitude
Exits shadow 04:24:50 15° 61° (ENE) 1,204 ? -28.4°
Drops below altitude 10° 04:25:29 10° 66° (ENE) 1,456 ? -28.2°
Sets 04:27:39 0° 73° (ENE) 2,316 ? -27.8°
